Retour au catalogue

STARLINK-4395

ActifCommunicationsSSO
NORAD 53199·PAYLOAD·🇺🇸 United States

Lancé Jul 22, 2022 depuis Vandenberg Space Force Base

Loading…

Prochains Passages (prochaines 24 heures)

TLE

FraisSource: CelesTrak SupGP

Époque: Sep 14, 2026, 22:19 UTC

1 53199C 22084L   26257.93034722  .00004161  00000+0  12928-3 0  2578
2 53199  97.2844 313.6466 0001554  91.7284  91.8219 15.33412579    19

Suivez STARLINK-4395 en temps réel avec AllMySat

Download on the App Store